QPF
0.00 0.01 0.02 0.01 0.00 0.01 0.01 0.01 0.01 0.00 0.00 0.00 0.00 0.01 0.00 0.00 0.01 0.01 0.01 0.01 0.02 0.03 0.02 0.01 0.01 0.01 0.02 0.03 0.04 0.05 0.04 0.03 0.04 0.05 0.05 0.07 0.07 0.05 0.03 0.03 0.03 0.03 0.04 0.04
0.00 0.00 0.00 0.00 0.00 0.00 0.00 0.01 0.01 0.00 0.00 0.00 0.00 0.01 0.00 0.00 0.00 0.01 0.01 0.01 0.02 0.02 0.02 0.01 0.01 0.02 0.02 0.03 0.03 0.04 0.03 0.02 0.02 0.02 0.04 0.05 0.05 0.04 0.04 0.03 0.04 0.03 0.03 0.04
0.00 0.01 0.01 0.00 0.00 0.00 0.00 0.00 0.01 0.01 0.00 0.00 0.01 0.04 0.01 0.00 0.00 0.00 0.01 0.01 0.02 0.02 0.02 0.02 0.01 0.01 0.02 0.03 0.03 0.03 0.04 0.02 0.01 0.02 0.03 0.04 0.05 0.05 0.05 0.04 0.03 0.02 0.01 0.02
0.01 0.01 0.00 0.00 0.00 0.00 0.00 0.00 0.01 0.01 0.00 0.00 0.00 0.03 0.03 0.01 0.00 0.00 0.00 0.01 0.01 0.02 0.02 0.01 0.01 0.01 0.01 0.02 0.03 0.04 0.04 0.03 0.03 0.02 0.02 0.04 0.04 0.05 0.05 0.04 0.03 0.02 0.02 0.01
0.01 0.00 0.00 0.00 0.00 0.00 0.00 0.00 0.00 0.00 0.00 0.00 0.00 0.00 0.01 0.04 0.03 0.01 0.00 0.01 0.01 0.01 0.01 0.00 0.00 0.00 0.00 0.01 0.01 0.03 0.06 0.05 0.05 0.04 0.03 0.03 0.03 0.03 0.03 0.03 0.04 0.03 0.02 0.03
0.00 0.00 0.00 0.00 0.00 0.00 0.00 0.00 0.00 0.00 0.00 0.00 0.00 0.00 0.00 0.02 0.03 0.01 0.00 0.00 0.00 0.01 0.01 0.01 0.01 0.00 0.00 0.01 0.02 0.02 0.05 0.06 0.06 0.05 0.03 0.03 0.03 0.04 0.05 0.05 0.04 0.03 0.02 0.02
0.00 0.00 0.00 0.00 0.00 0.00 0.00 0.00 0.01 0.01 0.01 0.01 0.00 0.00 0.00 0.00 0.00 0.00 0.00 0.00 0.00 0.00 0.01 0.01 0.01 0.01 0.01 0.01 0.01 0.02 0.03 0.04 0.05 0.05 0.05 0.05 0.05 0.06 0.05 0.04 0.04 0.04 0.03 0.02
0.00 0.00 0.00 0.00 0.00 0.00 0.00 0.00 0.01 0.02 0.02 0.02 0.01 0.00 0.00 0.00 0.00 0.00 0.00 0.00 0.00 0.01 0.03 0.01 0.01 0.02 0.01 0.00 0.00 0.01 0.02 0.03 0.05 0.07 0.08 0.09 0.10 0.08 0.05 0.04 0.04 0.04 0.03 0.03
0.00 0.00 0.00 0.00 0.00 0.00 0.00 0.00 0.00 0.00 0.00 0.01 0.02 0.01 0.00 0.00 0.00 0.00 0.00 0.00 0.00 0.01 0.02 0.01 0.00 0.03 0.04 0.02 0.00 0.00 0.01 0.02 0.05 0.11 0.15 0.17 0.15 0.11 0.08 0.07 0.04 0.03 0.02 0.02
0.00 0.00 0.00 0.00 0.00 0.00 0.00 0.00 0.00 0.00 0.01 0.01 0.02 0.02 0.01 0.00 0.00 0.00 0.00 0.00 0.00 0.00 0.01 0.01 0.00 0.02 0.05 0.05 0.02 0.00 0.00 0.01 0.01 0.03 0.05 0.07 0.08 0.07 0.07 0.07 0.06 0.05 0.03 0.02
0.00 0.00 0.00 0.00 0.00 0.00 0.00 0.00 0.00 0.00 0.01 0.02 0.02 0.02 0.01 0.00 0.00 0.00 0.00 0.01 0.01 0.01 0.02 0.04 0.01 0.00 0.03 0.07 0.04 0.01 0.00 0.00 0.01 0.01 0.02 0.02 0.04 0.07 0.08 0.06 0.05 0.05 0.05 0.05
0.00 0.00 0.00 0.00 0.00 0.00 0.00 0.00 0.00 0.00 0.00 0.01 0.02 0.01 0.00 0.00 0.00 0.00 0.00 0.02 0.04 0.02 0.03 0.06 0.02 0.00 0.01 0.03 0.04 0.04 0.02 0.00 0.00 0.01 0.01 0.01 0.02 0.04 0.05 0.04 0.04 0.04 0.05 0.06
0.00 0.00 0.01 0.01 0.00 0.00 0.00 0.00 0.00 0.00 0.00 0.00 0.01 0.01 0.01 0.00 0.00 0.00 0.00 0.00 0.02 0.01 0.01 0.02 0.02 0.01 0.00 0.00 0.01 0.01 0.02 0.01 0.00 0.01 0.01 0.02 0.02 0.03 0.04 0.05 0.05 0.05 0.06 0.06
0.00 0.00 0.01 0.02 0.02 0.00 0.00 0.00 0.00 0.00 0.00 0.00 0.00 0.00 0.01 0.01 0.01 0.01 0.01 0.02 0.02 0.00 0.00 0.00 0.01 0.01 0.01 0.01 0.01 0.01 0.02 0.03 0.02 0.01 0.02 0.03 0.03 0.04 0.04 0.04 0.04 0.05 0.06 0.07
0.00 0.00 0.00 0.01 0.00 0.00 0.00 0.00 0.00 0.00 0.00 0.00 0.00 0.00 0.00 0.00 0.00 0.02 0.02 0.01 0.01 0.00 0.00 0.00 0.00 0.01 0.02 0.01 0.01 0.03 0.07 0.10 0.08 0.04 0.04 0.06 0.05 0.05 0.04 0.04 0.04 0.05 0.05 0.05
0.00 0.00 0.00 0.01 0.00 0.00 0.00 0.00 0.00 0.00 0.00 0.00 0.00 0.00 0.00 0.00 0.00 0.00 0.01 0.00 0.00 0.00 0.00 0.00 0.00 0.00 0.01 0.01 0.01 0.01 0.03 0.07 0.07 0.05 0.05 0.06 0.07 0.09 0.08 0.05 0.05 0.06 0.06 0.07
0.00 0.00 0.00 0.00 0.00 0.00 0.00 0.00 0.00 0.00 0.00 0.00 0.00 0.00 0.00 0.00 0.01 0.00 0.01 0.01 0.01 0.01 0.01 0.01 0.00 0.00 0.00 0.01 0.01 0.01 0.02 0.02 0.03 0.03 0.04 0.06 0.09 0.11 0.12 0.09 0.07 0.07 0.07 0.08
0.00 0.00 0.00 0.00 0.00 0.00 0.00 0.00 0.00 0.00 0.00 0.00 0.00 0.00 0.00 0.00 0.01 0.00 0.01 0.02 0.02 0.02 0.03 0.02 0.01 0.01 0.01 0.01 0.01 0.01 0.01 0.02 0.01 0.02 0.02 0.06 0.09 0.12 0.10 0.09 0.09 0.10 0.10 0.11
0.00 0.00 0.00 0.00 0.00 0.00 0.00 0.00 0.00 0.00 0.00 0.00 0.00 0.00 0.00 0.01 0.01 0.01 0.01 0.01 0.02 0.02 0.02 0.02 0.02 0.01 0.01 0.01 0.01 0.01 0.01 0.02 0.02 0.02 0.03 0.04 0.04 0.05 0.07 0.09 0.10 0.13 0.13 0.12
0.00 0.00 0.00 0.00 0.00 0.01 0.01 0.00 0.00 0.01 0.01 0.00 0.00 0.00 0.00 0.01 0.01 0.01 0.01 0.01 0.02 0.02 0.03 0.02 0.03 0.02 0.01 0.00 0.01 0.01 0.02 0.03 0.03 0.03 0.04 0.05 0.05 0.05 0.05 0.05 0.07 0.09 0.11 0.12
0.01 0.01 0.01 0.01 0.01 0.01 0.00 0.00 0.00 0.01 0.01 0.00 0.00 0.00 0.00 0.00 0.01 0.01 0.01 0.01 0.02 0.02 0.02 0.02 0.02 0.02 0.02 0.01 0.01 0.02 0.02 0.03 0.05 0.07 0.06 0.06 0.06 0.06 0.06 0.06 0.06 0.07 0.08 0.09
0.01 0.01 0.01 0.01 0.01 0.01 0.00 0.00 0.00 0.00 0.00 0.01 0.01 0.00 0.01 0.00 0.00 0.00 0.00 0.01 0.01 0.01 0.01 0.02 0.02 0.01 0.01 0.02 0.02 0.02 0.02 0.02 0.04 0.06 0.06 0.06 0.06 0.05 0.05 0.07 0.07 0.06 0.06 0.06
0.00 0.01 0.00 0.01 0.01 0.01 0.00 0.00 0.00 0.00 0.00 0.00 0.00 0.00 0.00 0.00 0.00 0.00 0.00 0.00 0.00 0.00 0.01 0.01 0.01 0.01 0.01 0.01 0.02 0.03 0.03 0.03 0.04 0.05 0.06 0.07 0.06 0.06 0.07 0.08 0.08 0.07 0.07 0.06
0.00 0.00 0.00 0.01 0.00 0.00 0.00 0.00 0.00 0.00 0.00 0.00 0.00 0.00 0.00 0.00 0.00 0.00 0.00 0.00 0.00 0.00 0.00 0.01 0.01 0.01 0.01 0.01 0.02 0.03 0.03 0.03 0.03 0.04 0.05 0.06 0.06 0.06 0.08 0.08 0.07 0.06 0.06 0.05
0.00 0.00 0.01 0.02 0.01 0.00 0.00 0.00 0.00 0.00 0.00 0.00 0.00 0.00 0.00 0.00 0.00 0.00 0.00 0.00 0.00 0.00 0.00 0.00 0.01 0.01 0.01 0.02 0.02 0.03 0.03 0.03 0.04 0.03 0.03 0.04 0.04 0.05 0.07 0.08 0.08 0.08 0.07 0.05
0.00 0.00 0.01 0.01 0.00 0.00 0.00 0.00 0.00 0.00 0.00 0.00 0.00 0.00 0.00 0.00 0.00 0.00 0.01 0.00 0.00 0.01 0.01 0.01 0.02 0.02 0.02 0.02 0.02 0.02 0.03 0.03 0.04 0.04 0.03 0.03 0.04 0.05 0.06 0.08 0.09 0.10 0.09 0.08
MSLP
1006.10 1006.72 1007.22 1007.60 1007.88 1008.11 1008.30 1008.44 1008.53 1008.52 1008.40 1008.15 1007.78 1007.34 1006.89 1006.52 1006.29 1006.28 1006.49 1006.90 1007.46 1008.07 1008.66 1009.14 1009.47 1009.64 1009.67 1009.62 1009.54 1009.49 1009.51 1009.60 1009.76 1009.95 1010.14 1010.28 1010.35 1010.36 1010.33 1010.28 1010.24 1010.25 1010.32 1010.44
1006.57 1006.97 1007.25 1007.42 1007.56 1007.69 1007.84 1008.02 1008.16 1008.22 1008.16 1007.94 1007.57 1007.08 1006.55 1006.09 1005.78 1005.72 1005.92 1006.38 1007.04 1007.79 1008.54 1009.19 1009.67 1009.97 1010.08 1010.07 1009.99 1009.92 1009.90 1009.95 1010.07 1010.22 1010.37 1010.47 1010.51 1010.47 1010.37 1010.25 1010.14 1010.09 1010.10 1010.19
1006.85 1007.03 1007.09 1007.08 1007.09 1007.18 1007.35 1007.60 1007.86 1008.04 1008.08 1007.91 1007.53 1006.99 1006.36 1005.77 1005.34 1005.17 1005.32 1005.78 1006.48 1007.34 1008.24 1009.05 1009.70 1010.13 1010.35 1010.41 1010.37 1010.30 1010.27 1010.30 1010.40 1010.53 1010.66 1010.74 1010.76 1010.69 1010.55 1010.38 1010.22 1010.11 1010.07 1010.11
1006.97 1006.95 1006.82 1006.68 1006.62 1006.72 1006.97 1007.34 1007.75 1008.09 1008.23 1008.13 1007.75 1007.13 1006.38 1005.62 1005.02 1004.69 1004.72 1005.11 1005.82 1006.75 1007.76 1008.72 1009.52 1010.10 1010.45 1010.60 1010.63 1010.59 1010.57 1010.60 1010.69 1010.82 1010.96 1011.05 1011.07 1011.00 1010.86 1010.67 1010.47 1010.31 1010.22 1010.20
1006.93 1006.75 1006.50 1006.30 1006.24 1006.40 1006.77 1007.30 1007.89 1008.37 1008.64 1008.59 1008.19 1007.48 1006.57 1005.63 1004.82 1004.29 1004.16 1004.45 1005.11 1006.07 1007.16 1008.24 1009.18 1009.91 1010.39 1010.66 1010.76 1010.78 1010.78 1010.83 1010.93 1011.08 1011.24 1011.36 1011.42 1011.38 1011.26 1011.07 1010.86 1010.67 1010.53 1010.45
1006.77 1006.49 1006.19 1005.99 1005.99 1006.25 1006.77 1007.47 1008.21 1008.84 1009.20 1009.18 1008.75 1007.95 1006.89 1005.75 1004.73 1004.00 1003.69 1003.84 1004.44 1005.38 1006.52 1007.69 1008.76 1009.62 1010.23 1010.60 1010.79 1010.87 1010.91 1010.99 1011.11 1011.29 1011.49 1011.66 1011.77 1011.78 1011.70 1011.54 1011.34 1011.13 1010.95 1010.81
1006.47 1006.18 1005.89 1005.74 1005.84 1006.22 1006.88 1007.72 1008.60 1009.34 1009.76 1009.76 1009.30 1008.41 1007.22 1005.91 1004.71 1003.81 1003.34 1003.37 1003.88 1004.79 1005.95 1007.18 1008.34 1009.30 1010.02 1010.49 1010.76 1010.90 1010.99 1011.09 1011.24 1011.45 1011.68 1011.90 1012.07 1012.14 1012.12 1012.00 1011.82 1011.61 1011.41 1011.23
1006.08 1005.82 1005.59 1005.54 1005.73 1006.23 1007.01 1007.95 1008.91 1009.70 1010.16 1010.16 1009.67 1008.73 1007.46 1006.06 1004.74 1003.71 1003.13 1003.06 1003.50 1004.37 1005.52 1006.78 1007.99 1009.03 1009.83 1010.38 1010.72 1010.91 1011.03 1011.15 1011.32 1011.55 1011.81 1012.07 1012.28 1012.42 1012.45 1012.39 1012.24 1012.05 1011.84 1011.64
1005.59 1005.41 1005.28 1005.33 1005.62 1006.21 1007.04 1008.02 1009.00 1009.80 1010.26 1010.26 1009.77 1008.82 1007.54 1006.12 1004.77 1003.71 1003.07 1002.95 1003.33 1004.15 1005.28 1006.53 1007.77 1008.84 1009.69 1010.29 1010.67 1010.90 1011.05 1011.18 1011.36 1011.59 1011.86 1012.14 1012.39 1012.57 1012.65 1012.64 1012.54 1012.38 1012.18 1011.98
1005.06 1004.98 1004.97 1005.11 1005.47 1006.09 1006.92 1007.88 1008.82 1009.58 1010.01 1010.00 1009.53 1008.64 1007.43 1006.08 1004.79 1003.77 1003.15 1003.02 1003.37 1004.15 1005.23 1006.45 1007.66 1008.73 1009.59 1010.22 1010.63 1010.88 1011.04 1011.18 1011.35 1011.58 1011.84 1012.12 1012.38 1012.58 1012.70 1012.72 1012.67 1012.55 1012.39 1012.22
1004.54 1004.58 1004.67 1004.89 1005.28 1005.89 1006.66 1007.52 1008.36 1009.03 1009.41 1009.41 1009.00 1008.21 1007.14 1005.94 1004.81 1003.90 1003.36 1003.25 1003.59 1004.32 1005.32 1006.47 1007.62 1008.66 1009.51 1010.14 1010.56 1010.83 1011.00 1011.15 1011.30 1011.51 1011.74 1012.00 1012.25 1012.46 1012.59 1012.66 1012.64 1012.57 1012.46 1012.33
1004.11 1004.27 1004.45 1004.72 1005.11 1005.65 1006.31 1007.03 1007.72 1008.28 1008.59 1008.60 1008.26 1007.61 1006.74 1005.75 1004.82 1004.08 1003.65 1003.59 1003.91 1004.57 1005.48 1006.53 1007.59 1008.56 1009.37 1009.99 1010.43 1010.72 1010.91 1011.06 1011.22 1011.40 1011.60 1011.83 1012.05 1012.25 1012.39 1012.47 1012.49 1012.47 1012.42 1012.34
1003.83 1004.10 1004.36 1004.66 1005.02 1005.45 1005.97 1006.51 1007.03 1007.45 1007.69 1007.69 1007.44 1006.96 1006.29 1005.54 1004.84 1004.28 1003.97 1003.95 1004.25 1004.84 1005.63 1006.55 1007.50 1008.38 1009.14 1009.75 1010.21 1010.53 1010.76 1010.94 1011.10 1011.27 1011.46 1011.65 1011.84 1012.01 1012.14 1012.23 1012.29 1012.32 1012.32 1012.30
1003.75 1004.11 1004.43 1004.73 1005.04 1005.36 1005.71 1006.06 1006.39 1006.66 1006.81 1006.81 1006.64 1006.30 1005.85 1005.33 1004.84 1004.47 1004.26 1004.29 1004.55 1005.04 1005.71 1006.49 1007.31 1008.10 1008.82 1009.42 1009.91 1010.28 1010.57 1010.79 1010.99 1011.16 1011.33 1011.50 1011.66 1011.80 1011.92 1012.02 1012.10 1012.16 1012.21 1012.25
1003.86 1004.30 1004.66 1004.96 1005.19 1005.39 1005.57 1005.72 1005.87 1005.97 1006.03 1006.01 1005.90 1005.70 1005.42 1005.11 1004.82 1004.59 1004.49 1004.53 1004.75 1005.14 1005.68 1006.32 1007.02 1007.73 1008.41 1009.02 1009.55 1009.99 1010.36 1010.65 1010.89 1011.09 1011.26 1011.41 1011.54 1011.66 1011.77 1011.86 1011.96 1012.04 1012.13 1012.22
1004.13 1004.61 1004.99 1005.27 1005.43 1005.51 1005.52 1005.49 1005.45 1005.41 1005.36 1005.31 1005.23 1005.13 1005.00 1004.86 1004.73 1004.63 1004.59 1004.65 1004.83 1005.12 1005.54 1006.06 1006.66 1007.30 1007.96 1008.59 1009.17 1009.70 1010.15 1010.53 1010.83 1011.07 1011.26 1011.40 1011.51 1011.60 1011.69 1011.78 1011.88 1011.98 1012.09 1012.20
1004.46 1004.96 1005.34 1005.58 1005.66 1005.63 1005.49 1005.30 1005.10 1004.91 1004.77 1004.66 1004.60 1004.57 1004.55 1004.53 1004.53 1004.53 1004.55 1004.63 1004.77 1005.00 1005.33 1005.76 1006.28 1006.87 1007.52 1008.18 1008.83 1009.44 1009.97 1010.43 1010.80 1011.09 1011.29 1011.43 1011.53 1011.60 1011.67 1011.74 1011.84 1011.94 1012.06 1012.17
1004.76 1005.23 1005.58 1005.77 1005.79 1005.65 1005.39 1005.07 1004.73 1004.42 1004.18 1004.03 1003.96 1003.97 1004.02 1004.10 1004.20 1004.28 1004.38 1004.48 1004.61 1004.80 1005.08 1005.45 1005.92 1006.49 1007.14 1007.83 1008.53 1009.20 1009.82 1010.34 1010.77 1011.09 1011.31 1011.45 1011.53 1011.59 1011.64 1011.69 1011.77 1011.86 1011.97 1012.09
1004.91 1005.34 1005.63 1005.76 1005.71 1005.49 1005.14 1004.71 1004.27 1003.87 1003.55 1003.36 1003.28 1003.30 1003.42 1003.58 1003.75 1003.92 1004.08 1004.23 1004.39 1004.58 1004.84 1005.19 1005.64 1006.19 1006.84 1007.54 1008.27 1008.99 1009.65 1010.21 1010.67 1011.01 1011.23 1011.37 1011.45 1011.48 1011.51 1011.54 1011.60 1011.68 1011.77 1011.87
1004.88 1005.21 1005.43 1005.50 1005.39 1005.11 1004.70 1004.21 1003.70 1003.24 1002.88 1002.65 1002.57 1002.61 1002.76 1002.98 1003.24 1003.49 1003.72 1003.94 1004.14 1004.36 1004.64 1004.98 1005.42 1005.96 1006.59 1007.29 1008.02 1008.74 1009.40 1009.97 1010.44 1010.78 1011.00 1011.13 1011.19 1011.21 1011.21 1011.23 1011.27 1011.33 1011.41 1011.49
1004.63 1004.86 1005.00 1005.00 1004.84 1004.54 1004.10 1003.59 1003.06 1002.58 1002.20 1001.96 1001.88 1001.94 1002.13 1002.41 1002.73 1003.05 1003.36 1003.65 1003.91 1004.18 1004.48 1004.83 1005.26 1005.77 1006.37 1007.03 1007.72 1008.41 1009.04 1009.59 1010.03 1010.35 1010.56 1010.68 1010.72 1010.73 1010.73 1010.73 1010.76 1010.81 1010.88 1010.96
1004.21 1004.33 1004.39 1004.34 1004.16 1003.84 1003.42 1002.92 1002.42 1001.95 1001.59 1001.36 1001.30 1001.38 1001.60 1001.92 1002.30 1002.69 1003.07 1003.41 1003.74 1004.04 1004.36 1004.71 1005.12 1005.59 1006.13 1006.73 1007.35 1007.96 1008.53 1009.03 1009.43 1009.72 1009.92 1010.03 1010.08 1010.08 1010.08 1010.09 1010.11 1010.16 1010.22 1010.30
1003.70 1003.71 1003.70 1003.61 1003.43 1003.15 1002.77 1002.33 1001.88 1001.47 1001.15 1000.95 1000.91 1001.02 1001.26 1001.61 1002.02 1002.45 1002.88 1003.27 1003.63 1003.96 1004.28 1004.61 1004.98 1005.39 1005.85 1006.35 1006.88 1007.40 1007.89 1008.32 1008.68 1008.95 1009.14 1009.25 1009.31 1009.33 1009.34 1009.36 1009.40 1009.45 1009.53 1009.61
1003.18 1003.11 1003.05 1002.95 1002.79 1002.56 1002.25 1001.90 1001.53 1001.19 1000.93 1000.79 1000.78 1000.91 1001.16 1001.52 1001.94 1002.39 1002.83 1003.23 1003.60 1003.93 1004.23 1004.53 1004.84 1005.16 1005.53 1005.93 1006.35 1006.77 1007.18 1007.55 1007.87 1008.12 1008.31 1008.45 1008.53 1008.59 1008.64 1008.69 1008.74 1008.82 1008.91 1009.01
1002.75 1002.62 1002.53 1002.44 1002.32 1002.16 1001.94 1001.68 1001.42 1001.17 1000.99 1000.90 1000.92 1001.06 1001.32 1001.66 1002.07 1002.50 1002.93 1003.32 1003.67 1003.97 1004.24 1004.48 1004.71 1004.95 1005.22 1005.51 1005.83 1006.16 1006.50 1006.82 1007.11 1007.37 1007.59 1007.76 1007.90 1008.00 1008.09 1008.18 1008.27 1008.38 1008.48 1008.60
1002.47 1002.31 1002.22 1002.15 1002.08 1001.99 1001.86 1001.71 1001.55 1001.40 1001.29 1001.26 1001.31 1001.46 1001.70 1002.02 1002.40 1002.79 1003.18 1003.53 1003.84 1004.10 1004.32 1004.49 1004.65 1004.81 1004.99 1005.19 1005.43 1005.69 1005.98 1006.27 1006.56 1006.84 1007.09 1007.31 1007.51 1007.67 1007.82 1007.95 1008.08 1008.20 1008.33 1008.46
Thickness
5858 5844 5837 5846 5850 5850 5849 5845 5841 5851 5868 5859 5847 5845 5849 5854 5850 5842 5836 5831 5827 5824 5826 5825 5822 5820 5815 5809 5805 5801 5797 5794 5791 5788 5784 5781 5780 5782 5783 5783 5782 5780 5779 5779
5844 5836 5853 5865 5865 5861 5854 5844 5842 5853 5869 5860 5845 5840 5851 5855 5851 5849 5840 5835 5831 5827 5824 5823 5822 5820 5815 5810 5806 5802 5798 5796 5793 5790 5788 5786 5785 5784 5784 5785 5784 5782 5781 5781
5834 5846 5865 5862 5857 5851 5851 5846 5844 5842 5856 5860 5846 5829 5838 5849 5855 5855 5850 5845 5839 5832 5826 5823 5822 5820 5817 5811 5808 5806 5801 5799 5796 5794 5791 5788 5786 5784 5784 5783 5783 5783 5783 5782
5843 5857 5857 5853 5852 5851 5840 5860 5856 5849 5839 5833 5838 5809 5828 5840 5841 5847 5848 5846 5843 5839 5833 5828 5825 5822 5820 5816 5813 5809 5804 5801 5798 5795 5791 5787 5782 5780 5782 5784 5785 5785 5784 5783
5839 5853 5850 5844 5852 5857 5851 5865 5858 5850 5841 5834 5839 5822 5821 5838 5828 5838 5848 5849 5849 5845 5840 5833 5830 5826 5824 5822 5817 5812 5806 5802 5800 5796 5793 5789 5786 5785 5786 5786 5785 5784 5784 5783
5848 5863 5861 5856 5864 5865 5862 5856 5852 5849 5839 5813 5831 5824 5815 5833 5834 5841 5850 5853 5852 5850 5845 5839 5835 5831 5826 5824 5820 5815 5807 5802 5800 5796 5794 5790 5787 5785 5784 5783 5782 5782 5783 5783
5832 5848 5861 5864 5850 5857 5852 5831 5812 5804 5803 5805 5833 5827 5826 5848 5855 5855 5853 5853 5853 5851 5845 5839 5834 5830 5826 5823 5821 5816 5808 5802 5800 5796 5793 5791 5789 5786 5784 5782 5782 5781 5782 5782
5815 5821 5851 5859 5848 5841 5844 5836 5806 5788 5791 5806 5823 5818 5837 5860 5864 5863 5859 5856 5852 5848 5844 5838 5834 5831 5827 5824 5821 5816 5809 5803 5799 5796 5794 5792 5790 5786 5785 5784 5783 5782 5782 5783
5820 5823 5856 5862 5862 5850 5835 5836 5846 5825 5816 5806 5813 5824 5839 5855 5853 5853 5850 5848 5844 5844 5841 5838 5834 5830 5825 5822 5820 5817 5811 5804 5800 5797 5794 5792 5790 5788 5786 5786 5784 5783 5783 5783
5832 5817 5840 5854 5855 5852 5847 5842 5833 5816 5793 5785 5798 5805 5811 5822 5833 5839 5839 5838 5839 5840 5838 5836 5834 5830 5828 5825 5821 5818 5812 5805 5801 5798 5795 5793 5790 5788 5786 5785 5783 5782 5782 5781
5836 5815 5823 5836 5830 5828 5831 5831 5826 5818 5811 5791 5778 5792 5831 5829 5833 5833 5834 5836 5835 5836 5835 5832 5831 5830 5827 5825 5820 5814 5810 5805 5800 5797 5794 5793 5790 5788 5786 5784 5782 5781 5780 5779
5832 5817 5806 5821 5844 5849 5838 5829 5826 5804 5798 5804 5791 5796 5841 5837 5834 5831 5829 5831 5831 5831 5830 5828 5827 5826 5822 5818 5815 5810 5807 5804 5801 5797 5793 5790 5788 5786 5783 5782 5781 5779 5777 5776
5821 5805 5785 5793 5813 5830 5826 5828 5828 5824 5812 5800 5787 5793 5833 5831 5827 5823 5821 5821 5822 5823 5822 5821 5818 5817 5815 5814 5811 5809 5805 5802 5800 5796 5791 5787 5784 5782 5780 5779 5778 5777 5775 5773
5817 5798 5786 5775 5791 5810 5809 5816 5821 5814 5801 5795 5796 5799 5811 5814 5812 5813 5813 5814 5814 5813 5812 5811 5808 5808 5808 5807 5805 5803 5802 5800 5797 5793 5788 5783 5780 5778 5777 5776 5775 5774 5772 5770
5810 5789 5791 5796 5807 5811 5808 5809 5812 5807 5805 5795 5797 5796 5802 5807 5807 5805 5806 5807 5804 5803 5803 5802 5801 5799 5799 5799 5798 5797 5796 5795 5790 5786 5783 5779 5778 5775 5773 5772 5771 5770 5769 5768
5800 5784 5783 5782 5798 5803 5801 5807 5807 5807 5809 5805 5801 5795 5808 5810 5805 5800 5798 5796 5794 5794 5794 5795 5794 5793 5791 5790 5789 5788 5787 5786 5783 5778 5776 5775 5772 5770 5767 5766 5765 5764 5763 5762
5787 5776 5765 5765 5785 5787 5780 5800 5803 5803 5808 5803 5790 5793 5804 5797 5794 5792 5791 5789 5787 5786 5786 5785 5784 5784 5783 5783 5781 5779 5778 5778 5775 5771 5769 5767 5765 5762 5760 5759 5757 5755 5755 5755
5775 5766 5762 5760 5763 5744 5783 5812 5808 5800 5800 5801 5796 5795 5794 5790 5789 5789 5788 5784 5780 5778 5776 5775 5776 5775 5776 5776 5774 5772 5771 5769 5766 5763 5761 5760 5757 5754 5753 5750 5748 5748 5747 5746
5782 5763 5752 5750 5746 5755 5780 5794 5794 5785 5779 5792 5787 5786 5787 5787 5781 5775 5778 5777 5773 5771 5769 5768 5768 5768 5766 5765 5764 5762 5761 5759 5757 5754 5752 5751 5749 5746 5744 5742 5741 5741 5740 5739
5773 5763 5747 5742 5733 5733 5756 5782 5792 5779 5758 5778 5777 5772 5772 5770 5754 5752 5763 5764 5762 5760 5759 5758 5758 5757 5754 5753 5754 5751 5749 5747 5746 5745 5744 5743 5742 5738 5736 5734 5733 5733 5732 5731
5744 5742 5735 5732 5729 5741 5761 5776 5774 5741 5737 5763 5766 5762 5759 5752 5748 5751 5754 5751 5750 5748 5747 5747 5745 5742 5741 5742 5741 5738 5737 5736 5737 5737 5736 5734 5733 5730 5729 5728 5726 5725 5723 5722
5735 5730 5727 5727 5719 5722 5752 5755 5742 5737 5751 5754 5753 5752 5747 5744 5744 5743 5741 5739 5737 5735 5734 5734 5731 5729 5730 5731 5728 5725 5725 5727 5728 5727 5725 5724 5723 5722 5722 5718 5716 5715 5713 5711
5735 5732 5730 5725 5720 5732 5742 5740 5742 5744 5740 5741 5741 5741 5738 5734 5731 5731 5729 5728 5726 5724 5722 5722 5719 5717 5718 5718 5717 5714 5715 5717 5716 5715 5714 5713 5713 5712 5711 5709 5706 5705 5704 5703
5728 5734 5723 5715 5719 5727 5729 5730 5730 5730 5728 5730 5731 5729 5727 5722 5720 5718 5717 5716 5714 5713 5711 5709 5707 5704 5704 5705 5705 5705 5706 5707 5705 5703 5703 5703 5703 5703 5702 5700 5699 5697 5696 5694
5711 5714 5710 5703 5707 5713 5715 5716 5716 5717 5717 5717 5717 5717 5714 5711 5708 5707 5705 5704 5703 5702 5700 5698 5695 5692 5692 5693 5693 5694 5695 5695 5693 5692 5692 5692 5694 5694 5693 5691 5690 5688 5687 5685
5704 5702 5696 5692 5698 5698 5697 5704 5706 5703 5701 5702 5702 5701 5702 5701 5698 5697 5695 5694 5692 5690 5689 5686 5684 5682 5682 5682 5680 5681 5683 5682 5680 5679 5680 5681 5683 5685 5684 5682 5680 5678 5676 5674